Lexington Weather

Lexington, Massachusetts, USA

46°F
10/22/2019 1:58am 
  • Lexington Conditions: Few Clouds
  • Temperature: 46.0°F / 7.8°CWarmer 0.5°F than last hour.
  • Dew Point: 44.4°FIncreased 1.4°Fsince last hour.
  • Relative Humidity: 94%Increased 3.0% since last hour.
  • Wind: Calm, 10-min avg: Calm, gust: None
  • Barometer: 30.12 in Steady
  • Visibility: 10 miles
  • Rain Today: 0.00 in
  •   

Regional Weather Roundup
for Boston, MA

        
000
ASUS41 KBOX 211810
RWRBOX

REGIONAL WEATHER ROUNDUP
NATIONAL WEATHER SERVICE BOSTON/NORTON MA
200 PM EDT MON OCT 21 2019

NOTE:  "FAIR" INDICATES FEW OR NO CLOUDS BELOW 12,000 FEET WITH NO 
SIGNIFICANT WEATHER AND/OR OBSTRUCTIONS TO VISIBILITY.

MAZALL-211900-
EASTERN MASSACHUSETTS
  
CITY           SKY/WX    TMP DP  RH WIND       PRES   REMARKS
BOSTON         FAIR      60  50  69 E16       30.11S                  
6HR MIN TEMP:  54; 6HR MAX TEMP:  63;                                

BEVERLY        FAIR      61  46  57 NE9G17    30.10S                  
LAWRENCE       FAIR      64  47  53 VRB5      30.11F                  
BEDFORD        FAIR      68  46  45 E8        30.08F                  
BLUE HILL      NOT AVBL                                               
NORWOOD        FAIR      63  47  55 E12G20    30.10R                  
MARSHFIELD     FAIR      59  50  72 VRB7G14   30.09F                  
PLYMOUTH       FAIR      59  48  67 NE14G22   30.08F                  
TAUNTON        FAIR      64  46  52 NE8G20    30.08S                  
NEW BEDFORD    FAIR      62  45  53 NE13G21   30.06F                  
$$

MAZALL-211900-
CAPE COD AND THE ISLANDS
  
CITY           SKY/WX    TMP DP  RH WIND       PRES   REMARKS
FALMOUTH       SUNNY     59  48  67 NE18G28   30.06F                  
HYANNIS        FAIR      61  49  64 N17G29    30.03F                  
CHATHAM        NOT AVBL                                               
PROVINCETOWN   FAIR      59  51  75 NE13G20     N/A                   
NANTUCKET      CLOUDY    59  53  80 N23G31    30.01F                  
MARTHAS VNYRD  CLOUDY    60  49  66 N16       30.04F                  
$$
 
MAZALL-211900-
CENTRAL AND WESTERN MASSACHUSETTS
  
CITY           SKY/WX    TMP DP  RH WIND       PRES   REMARKS
WORCESTER      FAIR      59  45  59 NE8       30.09S                  
6HR MIN TEMP:  46; 6HR MAX TEMP:  60;                                

FITCHBURG      FAIR      62  45  53 VRB7      30.10F                  
ORANGE         FAIR      65  45  48 VRB7      30.09F                  
SPRINGFIELD    SUNNY     64  47  54 N5        30.07F                  
WESTFIELD      FAIR      64  44  48 NE9       30.08F                  
NORTH ADAMS    FAIR      62  46  55 W7        30.08F                  
PITTSFIELD     FAIR      66  45  46 NE7       30.06F                  
$$
 
RIZALL-211900-
RHODE ISLAND
  
CITY           SKY/WX    TMP DP  RH WIND       PRES   REMARKS
PROVIDENCE     FAIR      65  46  50 N16       30.08R                  
6HR MIN TEMP:  54; 6HR MAX TEMP:  66;                                

NEWPORT        FAIR      64  46  52 NE14G22   30.06S                  
BLOCK ISLAND   CLOUDY    62  48  60 NE13G18   30.05F                  
SMITHFIELD     FAIR     N/A N/A N/A NE10      30.08S                  
WESTERLY       FAIR      69  46  43 N8G18     30.05F                  
$$
 
CTZALL-211900-
CONNECTICUT
  
CITY           SKY/WX    TMP DP  RH WIND       PRES   REMARKS
BRADLEY INTL   FAIR      66  46  48 NE10      30.07F                  
6HR MIN TEMP:  48; 6HR MAX TEMP:  67;                                

HARTFORD       FAIR      64  48  56 N10       30.06F                  
BRIDGEPORT     FAIR      66  47  50 E12       30.05F                  
DANBURY        FAIR      66  43  43 NE8       30.06F                  
GROTON         FAIR      67  47  48 NE12      30.04F                  
NEW HAVEN      FAIR      67  48  50 N8        30.05F                  
CHESTER        FAIR      66  39  37 NE10      30.05F                  
MERIDEN        FAIR      65  45  48 N10G18    30.05F                  
WILLIMANTIC    FAIR      65  45  48 NE12      30.09R                  
OXFORD         FAIR      63  43  48 NE10      30.07F                  
$$

MEZ002-015-021-024-NHZ003-005-008-011-012-014-VTZ005-008-211900-
NORTHERN NEW ENGLAND
  
CITY           SKY/WX    TMP DP  RH WIND       PRES   REMARKS
PORTLAND ME    FAIR      62  46  55 E7        30.11S                  
6HR MIN TEMP:  46; 6HR MAX TEMP:  62;                                

BANGOR ME      FAIR      62  43  49 CALM      30.11S                  
CONCORD NH     FAIR      57  48  72 NW6       30.11F                  
MANCHESTER NH  FAIR      62  46  55 N5        30.09F                  
NASHUA NH      FAIR      62  48  60 VRB7      30.10F                  
PORTSMOUTH NH  MOSUNNY   63  47  55 E7        30.09S                  
JAFFREY NH     FAIR      61  48  62 VRB5      30.11S                  
KEENE NH       FAIR      60  49  66 NW5       30.11S                  
BURLINGTON VT  FAIR      61  46  57 NW8       30.11F                  
MT. WASHINGTON MOSUNNY   39  27  60 N9          N/A                   
$$

NYZ052-076-211900-
EASTERN NEW YORK
  
CITY           SKY/WX    TMP DP  RH WIND       PRES   REMARKS
ALBANY         CLOUDY    53  47  79 NE5       30.13F                  
6HR MIN TEMP:  47; 6HR MAX TEMP:  53; 6HR PCP: TRACE;                

NEW YORK CITY  FAIR      65  45  48 NE8       30.05F                  
6HR MIN TEMP:  53; 6HR MAX TEMP:  65;                                

$$
 
ANZALL-211900-
MARINE OBSERVATIONS
  
STATION/POSITION TIME  TEMP    WIND        PRES    VSBY  WAVE
                       AIR SEA DIR/SP/G                  HT/PER
                 (UTC) (F)     (DEG/KT/KT) (MB)    (MI)  (FT/S)
BOSTON BUOY      1750   55 57   40/ 14/ 16 1018.5F         3/ 3
BUZZARDS BAY     1700   57      40/ 22/ 24 1017.8R
NANTUCKET SOUND  1740      57                N/A           2/ 4
MASS BAY-STELLWA 1704   55 56   40/ 12/ 14 1019.1F  1 7/8  3/ 4
ISLE OF SHOALS   1700   54      50/ 11/ 12 1019.1F
S OF BLOCK IS    1800      60                N/A           8/ 9
$$

......................KEY.........................
  SKY/WX - SKY CONDITION/PRESENT WEATHER
  TMP    - TEMPERATURE IN FAHRENHEIT
  DWPT   - DEWPOINT IN FAHRENHEIT
  RH     - RELATIVE HUMIDITY IN PERCENT
  WIND   - DIRECTION AND SPEED IN MPH
  PRES   - MEAN SEA LEVEL PRESSURE IN INCHES OF HG
  WCI    - WIND CHILL INDEX
  VSB    - VISIBILITY IN MILES
  HX     - HEAT INDEX
  TC     - TEMPERATURE IN CELSIUS
  VRB    - VARIABLE WIND DIRECTION
  N/A    - NOT AVAILABLE
  
      

Other recent Regional Weather Roundups

Tue Oct 22, 1:10am

Tue Oct 22, 1:00am

Tue Oct 22, 12:10am

Tue Oct 22, 12:00am

Mon Oct 21, 11:10pm

Mon Oct 21, 11:00pm

Mon Oct 21, 10:10pm

Mon Oct 21, 10:01pm

Mon Oct 21, 9:10pm

Mon Oct 21, 9:00pm

Mon Oct 21, 8:10pm

Mon Oct 21, 8:00pm

Mon Oct 21, 7:10pm

Mon Oct 21, 7:01pm

Mon Oct 21, 6:10pm

Mon Oct 21, 6:01pm

Mon Oct 21, 5:10pm

Mon Oct 21, 5:01pm

Mon Oct 21, 4:10pm

Mon Oct 21, 4:00pm

Mon Oct 21, 3:10pm

Mon Oct 21, 3:01pm

Mon Oct 21, 2:00pm

Mon Oct 21, 1:10pm

Mon Oct 21, 1:01pm

Mon Oct 21, 12:10pm

Mon Oct 21, 12:00pm

Mon Oct 21, 11:10am

Mon Oct 21, 11:00am

Mon Oct 21, 10:10am

Mon Oct 21, 10:00am

Mon Oct 21, 9:10am

Mon Oct 21, 9:00am

Mon Oct 21, 7:10am

Mon Oct 21, 7:00am

Mon Oct 21, 6:10am

Mon Oct 21, 6:00am

Mon Oct 21, 5:10am

Mon Oct 21, 5:00am

Mon Oct 21, 4:10am

Mon Oct 21, 4:00am

Mon Oct 21, 3:10am

Mon Oct 21, 3:00am

Mon Oct 21, 2:10am

Mon Oct 21, 2:01am

Mon Oct 21, 1:10am

Mon Oct 21, 1:00am

Mon Oct 21, 12:10am

Mon Oct 21, 12:00am

Sun Oct 20, 11:10pm

Sun Oct 20, 11:00pm

Sun Oct 20, 10:10pm

Sun Oct 20, 10:00pm

Sun Oct 20, 9:10pm

Sun Oct 20, 9:01pm

Sun Oct 20, 8:10pm

Sun Oct 20, 8:00pm

Sun Oct 20, 7:10pm

Sun Oct 20, 7:01pm

Sun Oct 20, 6:10pm

Sun Oct 20, 6:00pm

Sun Oct 20, 5:10pm

Sun Oct 20, 5:00pm

Sun Oct 20, 4:10pm

Sun Oct 20, 4:00pm

Sun Oct 20, 3:10pm

Sun Oct 20, 3:00pm

Sun Oct 20, 2:10pm

Sun Oct 20, 2:01pm

Sun Oct 20, 1:10pm

Sun Oct 20, 1:01pm

Sun Oct 20, 12:10pm

Sun Oct 20, 12:00pm

Sun Oct 20, 11:10am

Sun Oct 20, 11:00am

Sun Oct 20, 10:10am

Sun Oct 20, 10:00am

Sun Oct 20, 9:10am

Sun Oct 20, 9:00am

Sun Oct 20, 8:10am

Sun Oct 20, 8:00am

Sun Oct 20, 7:10am

Sun Oct 20, 7:00am

Sun Oct 20, 6:10am

Sun Oct 20, 6:00am

Sun Oct 20, 5:10am

Sun Oct 20, 5:00am

Sun Oct 20, 4:10am

Sun Oct 20, 4:00am

Sun Oct 20, 3:10am

Sun Oct 20, 3:00am

Sun Oct 20, 2:10am

Sun Oct 20, 2:00am

Sun Oct 20, 1:10am

Sun Oct 20, 1:00am

Sun Oct 20, 12:10am

Sun Oct 20, 12:00am

Sat Oct 19, 11:10pm

Sat Oct 19, 11:00pm

Sat Oct 19, 10:10pm

Sat Oct 19, 10:00pm

Sat Oct 19, 9:10pm

Sat Oct 19, 9:00pm

Sat Oct 19, 8:10pm

Sat Oct 19, 8:00pm

Sat Oct 19, 7:10pm

Sat Oct 19, 7:00pm

Sat Oct 19, 6:10pm

Sat Oct 19, 6:00pm

Sat Oct 19, 5:10pm

Sat Oct 19, 5:00pm

Sat Oct 19, 4:10pm

Sat Oct 19, 4:00pm

Sat Oct 19, 3:10pm

Sat Oct 19, 3:01pm

Sat Oct 19, 2:10pm

Sat Oct 19, 2:00pm

Sat Oct 19, 1:10pm

Sat Oct 19, 1:01pm

Sat Oct 19, 12:10pm

Sat Oct 19, 12:00pm

Sat Oct 19, 11:10am

Sat Oct 19, 11:01am

Sat Oct 19, 10:10am

Sat Oct 19, 10:00am

Sat Oct 19, 9:10am

Sat Oct 19, 9:00am

Sat Oct 19, 8:10am

Sat Oct 19, 8:00am

Sat Oct 19, 7:10am

Sat Oct 19, 7:00am

Sat Oct 19, 6:10am

Sat Oct 19, 6:00am

Sat Oct 19, 5:10am

Sat Oct 19, 5:00am

Sat Oct 19, 4:10am

Sat Oct 19, 4:00am

Sat Oct 19, 3:10am

Sat Oct 19, 3:00am

Sat Oct 19, 2:10am

Sat Oct 19, 2:00am

Meta data:

ID: 4498b55f-e51a-4974-886c-7f0b4a7ff500
Link: https://api.weather.gov/products/4498b55f-e51a-4974-886c-7f0b4a7ff500